Regional Weather Roundup
Issued by NWS

Home | Current Version | Previous Version | Text Only | Print | Product List | Glossary Off
Versions: 1 2 3 4 5 6 7 8 9 10 11 12 13 14 15 16 17 18 19 20 21 22 23 24 25 26 27 28 29 30 31 32 33 34 35 36 37 38 39 40 41 42 43 44 45 46 47 48 49 50

000
ASUS43 KBIS 230320
RWRND

NORTH DAKOTA REGIONAL WEATHER ROUNDUP
NATIONAL WEATHER SERVICE BISMARCK ND
1000 PM CDT TUE JUL 22 2014

NOTE: "FAIR" INDICATES FEW OR NO CLOUDS BELOW 12,000 FEET WITH NO
SIGNIFICANT WEATHER AND/OR OBSTRUCTIONS TO VISIBILITY.


NDZ001>003-009>011-017-230400-
NORTHWEST NORTH DAKOTA

CITY           SKY/WX    TMP DP  RH WIND       PRES   REMARKS
WILLISTON      CLOUDY    77  61  57 E12       30.20R
MINOT          PTCLDY    69  62  78 NE5       30.22S
MINOT AFB      PTCLDY    70  64  79 E7        30.22S
$$

NDZ018>021-031>035-040>046-230400-
SOUTHWEST NORTH DAKOTA

CITY           SKY/WX    TMP DP  RH WIND       PRES   REMARKS
BISMARCK       CLOUDY    71  64  78 S6        30.24S
DICKINSON      CLOUDY    65  60  84 S6        30.22R
GARRISON         N/A     70  65  84 E8        30.21F
HETTINGER ARPT CLOUDY    67  60  78 E9        30.25R
$$

NDZ004>008-012>016-024-026-027-054-230400-
NORTHEAST NORTH DAKOTA

CITY           SKY/WX    TMP DP  RH WIND       PRES   REMARKS
GRAND FORKS    PTCLDY    65  61  87 CALM      30.22R
GRND FRKS AFB  CLEAR     65  62  89 N2        30.24R
DEVILS LAKE    CLEAR     68  59  73 E7        30.23R
$$

NDZ022-023-025-028>030-036>039-047>053-230400-
SOUTHEAST NORTH DAKOTA

CITY           SKY/WX    TMP DP  RH WIND       PRES   REMARKS
FARGO          CLEAR     67  58  72 CALM      30.23R
JAMESTOWN      PTCLDY    67  61  81 E5        30.24R
$$



USA.gov is the U.S. government's official web portal to all federal, state and local government web resources and services.